[[{"header":{"parameterUnit":"m.s-1","parameterCategory":1,"la1":30.2991,"la2":30.254,"lo1":-89.0895,"lo2":-89.0444,"dy":0.0017,"dx":0.0017,"nx":28,"ny":28,"refTime":"2023-10-09T21:00:00:Z","depth":0,"parameterNumber":2,"parameterNumberName":"U-component_of_WINDS"},"data":[0,0,0,0,0,0,0,0,0,0,0,0,0,0,0,0,0,0,0,0,0,0,0,0,0,0,0,0,0,0,0,0,0,0,0,0,0,0,0,0,0,0,0,0,0,0,0,0,0,0,0,0,0,0,0,0,0,0,3.4241,3.4242,0,3.4385,3.4387,3.4389,3.4369,3.4367,3.4364,3.4362,3.4507,3.4513,3.4519,0,0,0,0,0,0,0,0,0,0,0,0,0,3.3942,3.3948,3.424,3.4242,3.4244,3.4385,3.4387,3.4389,3.4369,3.4366,3.4364,3.4361,3.4505,3.4512,3.452,0,0,0,0,0,0,0,0,0,0,0,0,0,3.4078,3.395,3.424,3.4251,3.4254,3.4385,3.4387,3.4389,3.437,3.4366,3.4363,3.4359,3.4503,3.4512,3.4521,3.4648,0,0,3.4548,3.4552,0,0,0,0,0,0,0,0,3.407,3.4089,3.4248,3.4251,3.4254,3.4355,3.4335,3.4476,3.4371,3.4326,3.4362,3.4358,3.4459,3.4472,3.4507,3.4655,3.4661,3.4549,3.4555,3.4559,3.4561,0,0,0,0,0,0,0,3.4061,3.4082,3.4298,3.425,3.4254,3.4247,3.4263,3.4362,3.4411,3.4329,3.4328,3.4346,3.446,3.4498,3.451,3.4664,3.4549,3.4557,3.4563,3.4566,3.492,3.4923,0,0,0,0,0,0,3.4049,3.4075,3.4293,3.4302,3.4151,3.4256,3.4273,3.4326,3.441,3.4419,3.4349,3.4344,3.4484,3.4499,3.4515,3.4667,3.4559,3.4567,3.4572,3.4916,3.492,3.4925,0,0,0,0,0,0,3.4043,3.4069,3.4287,3.4188,3.4215,3.4265,3.4325,3.4331,3.4369,3.4424,3.4433,3.4379,3.4482,3.4502,3.4615,3.4672,3.4571,3.458,3.4911,3.4917,3.4923,3.4973,0,0,0,0,0,0,3.4034,3.4066,3.4117,3.4189,3.4221,3.4386,3.4329,3.4337,3.4385,3.4381,3.4454,3.4463,3.4481,3.4601,3.4624,3.4682,3.4587,3.4906,3.4914,3.4921,3.4967,3.498,3.4992,0,0,0,0,0,3.4024,3.4126,3.412,3.4146,3.4285,3.439,3.4407,3.4426,3.439,3.444,3.4475,3.4461,3.4662,3.4613,3.4638,3.47,3.4903,3.4912,3.492,3.4961,3.4978,3.4992,0,0,0,0,0,0,3.4058,3.4136,3.413,3.4259,3.4318,3.4386,3.445,3.4444,3.4514,3.4506,3.4526,3.4543,3.4655,3.469,3.4633,3.4826,3.4777,3.4791,3.48,3.4816,3.4828,3.4816,3.4594,0,0,0,0,0,3.4081,3.4161,3.4224,3.4331,3.4361,3.4401,3.4447,3.4456,3.4517,3.4542,3.4586,3.4645,3.4721,3.4771,3.4844,3.4972,3.4986,3.5027,3.504,3.505,3.5061,3.5127,3.5145,3.4954,3.4954,3.4953,0,0,3.4129,3.4181,3.423,3.434,3.4386,3.4466,3.4422,3.4509,3.4567,3.4555,3.4663,3.4697,3.4764,3.4884,3.4939,3.4916,3.5117,3.5061,3.5069,3.5074,3.5138,3.5156,3.5172,3.496,3.4959,3.4958,0,0,3.4256,3.4305,3.4398,3.4446,3.4517,3.4542,3.4564,3.4634,3.4655,3.4765,3.4756,3.4825,3.4957,3.5004,3.5045,3.5187,3.5175,3.5211,3.5275,3.5339,3.5354,3.5367,3.5414,3.5431,3.5222,3.5222,3.5222,0,3.4306,3.4427,3.4447,3.4534,3.4581,3.4574,3.4666,3.4711,3.4803,3.4834,3.4808,3.497,3.5016,3.5144,3.5178,3.5213,3.5237,3.5201,3.5351,3.5364,3.5377,3.5422,3.544,3.5226,3.5225,3.5225,3.5225,0,3.4483,3.4567,3.4634,3.4722,3.4776,3.4866,3.4897,3.495,3.4954,3.4981,3.5089,3.5143,3.5225,3.5257,3.5263,3.5386,3.5369,3.5347,3.5297,3.5398,3.544,3.5458,3.5231,3.523,3.5229,3.5228,0,0,3.4636,3.4732,3.4756,3.4794,3.4872,3.4936,3.5024,3.5105,3.5148,3.5211,3.5283,3.5394,3.5372,3.5419,3.5429,3.5486,3.559,3.5456,3.5458,3.5476,3.5724,3.5738,3.5758,3.5584,3.5587,3.559,3.5717,0,3.4768,3.4925,3.4943,3.5082,3.5157,3.515,3.5226,3.5281,3.5308,3.5375,3.5404,3.5481,3.5449,3.5477,3.5533,3.5566,3.564,3.5557,3.5648,3.5651,3.5628,3.5781,3.5797,3.5915,3.5735,3.5737,3.574,0,3.4943,3.501,3.5156,3.5219,3.5251,3.532,3.5393,3.5458,3.5518,3.5534,3.5585,3.5587,3.5675,3.5624,3.5743,3.5686,3.5725,3.5746,3.5751,3.5758,3.5699,3.5788,3.5953,3.5969,3.5766,3.5764,3.5762,0,3.5035,3.5162,3.5265,3.5298,3.5376,3.5423,3.5457,3.5514,3.556,3.5625,3.5654,3.5728,3.5767,3.5823,3.5844,3.5805,3.5961,3.5913,3.5973,3.5973,3.6005,3.6002,3.6174,3.6035,3.6035,3.6034,3.6034,0,3.5179,3.5267,3.5307,3.5369,3.5467,3.5487,3.5583,3.5615,3.5665,3.5732,3.5731,3.5793,3.5819,3.5885,3.5902,3.5995,3.6015,3.6027,3.603,3.6026,3.6023,3.6049,3.604,3.6039,3.6038,3.6037,3.6036,0,3.5298,3.5328,3.5439,3.5503,3.5521,3.5589,3.5643,3.5702,3.5728,3.5813,3.5834,3.5874,3.5951,3.5978,3.6072,3.6083,3.6191,3.6189,3.617,3.617,3.6228,3.6221,3.642,3.6446,3.6293,3.6294,3.6296,0,3.5386,3.5454,3.5524,3.5569,3.5605,3.5678,3.5724,3.5746,3.5794,3.5866,3.5916,3.5993,3.6055,3.6178,3.6214,3.6285,3.6282,3.6347,3.6292,3.6284,3.6278,3.6273,3.6278,3.6356,3.6358,3.6359,3.636,0,3.5538,3.5549,3.5617,3.5689,3.5745,3.5803,3.5859,3.5896,3.5925,3.5979,3.6058,3.6106,3.6201,3.6276,3.6347,3.638,3.6374,3.6377,3.6394,3.6389,3.6374,3.6379,3.6194,3.6372,3.6371,3.637,3.6369,3.6369,3.5642,3.57,3.5758,3.5832,3.5877,3.5928,3.5986,3.6019,3.6085,3.6164,3.6173,3.6256,3.6311,3.6407,3.6443,3.6507,3.6489,3.6515,3.6521,3.6526,3.6528,3.6366,3.6521,3.6521,3.6521,3.652,3.652,0,3.579,3.5827,3.5895,3.5973,3.6031,3.6021,3.6082,3.613,3.6204,3.6257,3.6317,3.6406,3.6478,3.6519,3.659,3.6633,3.6632,3.6651,3.6646,3.6653,3.6543,3.6519,3.6651,3.6651,3.6651,3.6651,3.6651,3.665,3.5874,3.5971,3.5988,3.6106,3.6141,3.6223,3.6258,3.6305,3.6346,3.6445,3.6505,3.6532,3.6578,3.6653,3.6717,3.6727,3.6751,3.6772,3.6779,3.6675,3.6662,3.6649,3.6626,3.6778,3.6778,3.6884,3.6885,3.6886]},{"header":{"parameterUnit":"m.s-1","parameterCategory":1,"la1":30.2991,"la2":30.254,"lo1":-89.0895,"lo2":-89.0444,"dy":0.0017,"dx":0.0017,"nx":28,"ny":28,"refTime":"2023-10-09T21:00:00:Z","depth":0,"parameterNumber":3,"parameterNumberName":"V-component_of_WINDS"},"data":[0,0,0,0,0,0,0,0,0,0,0,0,0,0,0,0,0,0,0,0,0,0,0,0,0,0,0,0,0,0,0,0,0,0,0,0,0,0,0,0,0,0,0,0,0,0,0,0,0,0,0,0,0,0,0,0,0,0,0.5894,0.5895,0,0.5943,0.5943,0.5944,0.5925,0.5924,0.5922,0.5921,0.5973,0.5975,0.5978,0,0,0,0,0,0,0,0,0,0,0,0,0,0.5786,0.5788,0.5894,0.5895,0.5896,0.5943,0.5943,0.5944,0.5925,0.5923,0.5922,0.5921,0.5972,0.5975,0.5978,0,0,0,0,0,0,0,0,0,0,0,0,0,0.5834,0.5789,0.5894,0.5892,0.5892,0.5942,0.5943,0.5944,0.5925,0.5923,0.5922,0.592,0.5971,0.5975,0.5978,0.6035,0,0,0.599,0.5991,0,0,0,0,0,0,0,0,0.5831,0.5838,0.5891,0.5892,0.5892,0.5926,0.5924,0.5975,0.5926,0.5913,0.5921,0.5919,0.5959,0.5963,0.5976,0.6038,0.604,0.599,0.5992,0.5994,0.5995,0,0,0,0,0,0,0,0.5828,0.5835,0.5913,0.5892,0.5893,0.5888,0.5893,0.5933,0.5945,0.5914,0.5912,0.5918,0.5959,0.5973,0.5977,0.6041,0.599,0.5993,0.5995,0.5997,0.6149,0.6151,0,0,0,0,0,0,0.5824,0.5833,0.5912,0.5915,0.5857,0.5891,0.5897,0.5917,0.5944,0.5947,0.592,0.5917,0.5967,0.5973,0.5979,0.6047,0.5994,0.5997,0.5999,0.6147,0.6149,0.6151,0,0,0,0,0,0,0.5822,0.5831,0.591,0.5873,0.5883,0.5895,0.5918,0.5919,0.5933,0.5949,0.5951,0.5932,0.5966,0.5974,0.6021,0.6048,0.5999,0.6002,0.6145,0.6148,0.615,0.6182,0,0,0,0,0,0,0.5819,0.5831,0.5852,0.5874,0.5885,0.5951,0.5919,0.5921,0.5939,0.5936,0.5961,0.5963,0.5966,0.6015,0.6024,0.6052,0.6005,0.6143,0.6146,0.6149,0.6179,0.6186,0.6192,0,0,0,0,0,0.5815,0.586,0.5854,0.5863,0.5913,0.5953,0.5959,0.596,0.5941,0.5963,0.5973,0.5963,0.6043,0.602,0.603,0.606,0.6141,0.6145,0.6149,0.6176,0.6185,0.6192,0,0,0,0,0,0,0.5843,0.5863,0.5856,0.591,0.5929,0.5949,0.5977,0.5969,0.5995,0.5992,0.5992,0.5998,0.6046,0.6057,0.6032,0.6115,0.6089,0.6096,0.6106,0.6115,0.6121,0.6118,0.6008,0,0,0,0,0,0.5855,0.5886,0.5902,0.5948,0.5958,0.5966,0.5983,0.5982,0.6003,0.6011,0.6025,0.6046,0.6075,0.6095,0.6124,0.618,0.6185,0.6205,0.6211,0.6216,0.6222,0.6252,0.6261,0.6165,0.6165,0.6165,0,0,0.5881,0.5896,0.5916,0.5954,0.5969,0.6,0.5973,0.6008,0.6031,0.6017,0.6062,0.6072,0.6095,0.6146,0.617,0.6157,0.6249,0.6222,0.6226,0.6229,0.6257,0.6266,0.6274,0.6168,0.6167,0.6167,0,0,0.5945,0.5959,0.5998,0.6013,0.6036,0.6041,0.605,0.607,0.6076,0.6121,0.611,0.6138,0.619,0.6206,0.6222,0.6288,0.628,0.6298,0.6332,0.6361,0.6368,0.6375,0.6399,0.6407,0.6303,0.6303,0.6303,0,0.5975,0.6022,0.602,0.6055,0.6072,0.6058,0.6098,0.6113,0.6144,0.6156,0.6141,0.6204,0.6219,0.6273,0.6289,0.6302,0.6313,0.6296,0.6367,0.6374,0.638,0.6403,0.6412,0.6305,0.6305,0.6305,0.6305,0,0.6057,0.6089,0.6118,0.6147,0.6167,0.6205,0.6208,0.6228,0.6224,0.623,0.6275,0.6292,0.6323,0.6335,0.6333,0.6389,0.6381,0.6366,0.6341,0.6391,0.6412,0.6421,0.6308,0.6308,0.6307,0.6306,0,0,0.6143,0.6168,0.6178,0.6191,0.6213,0.6239,0.6274,0.6304,0.6321,0.6342,0.6372,0.6415,0.6401,0.6418,0.6417,0.6442,0.6493,0.6424,0.6425,0.6437,0.6556,0.6567,0.6577,0.6487,0.6488,0.6489,0.6554,0,0.6208,0.6271,0.6269,0.6327,0.6357,0.6343,0.6374,0.6391,0.6397,0.6423,0.6429,0.646,0.6439,0.6449,0.6473,0.6482,0.6517,0.6477,0.6515,0.6516,0.6511,0.6588,0.66,0.666,0.6562,0.6563,0.6564,0,0.6294,0.6316,0.6377,0.6394,0.6406,0.6434,0.646,0.6484,0.6503,0.6505,0.6523,0.6517,0.6553,0.6525,0.6575,0.6547,0.6562,0.6569,0.6571,0.6576,0.6544,0.6595,0.6679,0.6689,0.6577,0.6576,0.6575,0,0.635,0.6395,0.6437,0.6448,0.6468,0.6488,0.6498,0.6515,0.6532,0.6554,0.6565,0.6591,0.6606,0.6627,0.6628,0.6607,0.6677,0.665,0.6681,0.6681,0.6698,0.6697,0.6786,0.6706,0.6706,0.6706,0.6705,0,0.6424,0.6462,0.6462,0.6488,0.653,0.6527,0.6568,0.6576,0.659,0.6617,0.6607,0.6633,0.6632,0.6658,0.6659,0.6699,0.6706,0.6709,0.6709,0.6711,0.671,0.6722,0.6718,0.6708,0.6707,0.6707,0.6707,0,0.6494,0.6496,0.6541,0.6556,0.656,0.659,0.6603,0.6627,0.6631,0.6665,0.6673,0.6679,0.6709,0.6712,0.6747,0.6747,0.6796,0.6791,0.679,0.6789,0.682,0.6818,0.6921,0.6934,0.6845,0.6846,0.6846,0,0.6542,0.657,0.6587,0.6604,0.6614,0.6642,0.6659,0.6656,0.6674,0.6696,0.6718,0.6746,0.6769,0.6817,0.6825,0.6851,0.6847,0.6881,0.6851,0.6851,0.6848,0.6846,0.6849,0.6887,0.6888,0.6889,0.689,0,0.6626,0.6625,0.6649,0.6673,0.6693,0.6712,0.673,0.6745,0.6744,0.6764,0.6794,0.6811,0.6846,0.6874,0.6899,0.6909,0.69,0.6899,0.6908,0.691,0.6908,0.691,0.6807,0.6897,0.6896,0.6896,0.6895,0.6895,0.6687,0.6711,0.6726,0.6753,0.6766,0.6782,0.6805,0.6811,0.6835,0.6863,0.6859,0.6892,0.6908,0.6941,0.6952,0.6978,0.6966,0.6979,0.6982,0.6986,0.6989,0.6903,0.6982,0.6982,0.6982,0.6982,0.6982,0,0.677,0.6779,0.6803,0.6828,0.6849,0.6836,0.6855,0.6873,0.6902,0.6917,0.6939,0.6972,0.6999,0.7008,0.7034,0.7052,0.7049,0.7059,0.7058,0.7061,0.6998,0.6988,0.7062,0.7062,0.7062,0.7062,0.7062,0.7062,0.6817,0.6857,0.6857,0.6903,0.6911,0.6942,0.6954,0.6968,0.6981,0.7018,0.704,0.7045,0.7057,0.7084,0.7107,0.7109,0.7119,0.7132,0.7132,0.7073,0.7065,0.7058,0.7048,0.7134,0.7134,0.7193,0.7194,0.7194]}]]